Volver al catálogo

CZ-6A DEB

ActivoPO
NORAD 60671·DEBRIS·🇨🇳 China

Lanzado Aug 6, 2024 desde Taiyuan Satellite Launch Center

Loading…

Próximos Pases (próximas 24 horas)

TLE

ActualizadoSource: Space-Track

Época: Sep 14, 2026, 11:09 UTC

1 60671U 24140BY  26257.46527566  .00000261  00000-0  15626-3 0  9996
2 60671  89.0407 271.8022 0203237 315.4524  43.0466 13.94927664106802

Sigue CZ-6A DEB en tiempo real con AllMySat

Download on the App Store